User: anonymous   Login
Location: Unspecified
(51.0950°N, 12.9690°E)
Time: 07:26:11
(UTC+00:00)
Language:

Cosmos 1939 Rocket - Orbit

View from above orbital plane
View from above orbital plane
View from above satellite
View from above satellite

Ground track
Ground track

The orbit data is extracted from the following two-line orbital elements,

1 19046U 88032B   22023.89697820  .00001508  00000-0  11425-3 0  9999
2 19046  97.3880  29.3210 0037171  13.4791 346.7419 15.03196131824893
Epoch (UTC): 23 January 2022 21:31:38
Eccentricity: 0.0037171
inclination: 97.3880°
perigee height: 531 km
apogee height: 583 km
right ascension of ascending node: 29.3210°
argument of perigee: 13.4791°
revolutions per day: 15.03196131
mean anomaly at epoch: 346.7419°
orbit number at epoch: 82489

The dashed part of the orbit path shows where the satellite is in the earth's shadow,  

DLR